Weather Roundup
Issued by NWS Springfield, MO

Home | Current Version | Previous Version | Text Only | Print | Product List | Glossary On
Versions: 1 2 3 4 5 6 7 8 9 10 11 12 13 14 15 16 17 18 19 20 21 22 23 24 25 26 27 28 29 30 31 32 33 34 35 36 37 38 39 40 41 42 43 44 45 46 47 48 49 50
000
NZUS99 KSGF 281659
HRRSGF

HOURLY WEATHER
NATIONAL WEATHER SERVICE SPRINGFIELD MO
1100 AM CST WED JAN 28 2015

......SGF CWA......

CITY           SKY/WX    TMP DP  RH WIND       PRES   REMARKS
SPRINGFIELD    SUNNY     51  35  54 S17       30.06F
JOPLIN         SUNNY    N/A N/A N/A S20G30    30.00F
WEST PLAINS    SUNNY     43  31  62 SE13      30.20F
ROLLA          SUNNY     44  31  60 S21G30    30.09F
OSAGE BEACH    SUNNY     50  34  53 S13G23    30.06F
BRANSON        MOSUNNY   55  36  47 SE13      30.13F

......SURROUNDING SGF CWA......

CITY           SKY/WX    TMP DP  RH WIND       PRES   REMARKS
CHANUTE        SUNNY     66  39  37 S20G28    29.93F
PARSONS        SUNNY     65  39  38 S17G28    29.96F
COFFEYVILLE    SUNNY     64  39  39 S25G31    29.96F
EMPORIA        SUNNY     61  38  42 S16       29.85F
SILOAM SPRINGS SUNNY     64  37  36 S22       30.09F
HARRISON AR    SUNNY     56  37  49 SE15      30.14S
NEAR YELLVILLE SUNNY     52  32  46 S9G16     30.17F

......KANSAS AND MISSOURI......

CITY           SKY/WX    TMP DP  RH WIND       PRES   REMARKS
KANSAS CTY INT PTSUNNY   59  37  44 S13       29.88F
DOWNTOWN KC    SUNNY     60  36  40 S13       29.90F
COLUMBIA       SUNNY     47  34  60 S18       30.05F
SEDALIA        LGT RAIN  55  36  48 S18       30.01S
ST JOSEPH        N/A    N/A N/A N/A MISG      29.87F
ST LOUIS       MOSUNNY   39  26  59 SE20G29   30.20F WCI  29
SPIRIT OF STL  MOSUNNY   41  27  57 SE15G21   30.17F
KIRKSVILLE     SUNNY     39  33  79 SE18      30.00F WCI  30
WICHITA        PTSUNNY   64  38  38 S21       29.85F
TOPEKA         SUNNY     62  37  39 S10       29.85F
OLATHE         SUNNY     59  38  45 S14G23    29.90F

......TENNESSEE......

CITY           SKY/WX    TMP DP  RH WIND       PRES   REMARKS
MEMPHIS        MOSUNNY   48  28  46 E8        30.29F
NASHVILLE      MOSUNNY   40  22  48 SE7       30.35S

......ARKANSAS.......

CITY           SKY/WX    TMP DP  RH WIND       PRES   REMARKS
FAYETTEVILLE   SUNNY     61  38  42 S18G28    30.10F
FT SMITH       SUNNY     55  38  52 E10       30.15F
LITTLE ROCK    MOSUNNY   53  35  50 SE12      30.25F

......OKLAHOMA.......

CITY           SKY/WX    TMP DP  RH WIND       PRES   REMARKS
TULSA          MOSUNNY   65  41  41 S22       30.00F
PONCA CITY     SUNNY     72  36  26 S12G20    29.91F
MCALESTER      SUNNY     68  41  37 S12G23    30.08F
OKLAHOMA CITY  PTSUNNY   68  39  34 S17G23    29.98F

......IOWA............

CITY           SKY/WX    TMP DP  RH WIND       PRES   REMARKS
DES MOINES     CLOUDY    37  29  72 SE21      29.91F WCI  26
QUAD CITIES    MOSUNNY   30  22  72 SE14      30.12F WCI  19

......ILLINOIS........

CITY           SKY/WX    TMP DP  RH WIND       PRES   REMARKS
QUINCY         SUNNY     37  29  72 SE18      30.08F WCI  27
CHICAGO        PTSUNNY   30  14  51 S14       30.23F WCI  19



USA.gov is the U.S. government's official web portal to all federal, state and local government web resources and services.